Home   Weather   Namsos   Past weeks

Flag for Norway Past Weather in Namsos, Norway — Yesterday and Last 2 Weeks

Now
37 °F

Partly cloudy.


Feels Like: 29 °F
Forecast: 33 / 47 °F
Wind: 13 mph from Northeast

Location: Namsos Lufthavn

Current Time: Dec 8, 2016 at 8:48:56 am

Latest Report: Dec 8, 2016 at 8:20 am


Visibility: 5 mi

Pressure: 29.33 "Hg

Humidity: 100%

Dew Point: 37 °F

Location of NamsosLocation

Past Weather in Namsos — Graph

°F

Namsos Temperature Yesterday

Maximum temperature yesterday: 41 °F (at 5:50 am)
Minimum temperature yesterday: 34 °F (at 2:20 pm)
Average temperature yesterday: 35 °F

High & Low Weather Summary for the Past Weeks

 TemperatureHumidityPressure
High48 °F (Nov 25, 7:20 pm)100% (Nov 23, 9:50 am)30.36 "Hg (Nov 23, 9:50 am)
Low25 °F (Nov 27, 7:50 pm)61% (Dec 5, 5:50 am)29.33 "Hg (Nov 26, 9:50 am)
Average36 °F91%29.85 "Hg
* Reported Nov 23 7:20 am — Dec 8 7:20 am, Namsos, Weather by CustomWeather, © 2016

Note: Actual official high and low records may vary slightly from our data, if they occured in-between our weather recording intervals... More about our weather records

Advertising

Namsos Weather History for the Previous 24 Hours

Scroll right to see more
 ConditionsComfort  
Time TempWeatherWind HumidityBarometerVisibility
7:20 am
Thu, Dec 8
37 °FPartly cloudy.14 mph100%29.33 "Hg4 mi
6:50 am37 °FPartly cloudy.13 mph100%29.33 "Hg3 mi
6:20 am37 °FPartly cloudy.14 mph100%29.33 "Hg3 mi
5:50 am37 °FPartly cloudy.15 mph100%29.33 "Hg2 mi
9:50 pm
Wed, Dec 7
36 °FPartly cloudy.14 mph100%29.47 "Hg4 mi
9:20 pm36 °FPassing clouds.14 mph93%29.50 "Hg3 mi
8:50 pm34 °FLight rain. Passing clouds.15 mph100%29.50 "Hg3 mi
8:20 pm34 °FLight rain. Passing clouds.14 mph100%29.50 "Hg4 mi
7:50 pm34 °FLight rain. Passing clouds.14 mph100%29.50 "Hg4 mi
7:20 pm34 °FLight rain. Passing clouds.15 mph100%29.53 "HgN/A
6:50 pm34 °FLight rain. Passing clouds.15 mph100%29.53 "HgN/A
5:20 pm34 °FLight rain. Passing clouds.12 mph100%29.59 "HgN/A
4:50 pm34 °FLight rain. Passing clouds.12 mph100%29.59 "HgN/A
4:20 pm34 °FLight rain. Partly cloudy.14 mph93%29.62 "HgN/A
3:50 pm34 °FLight rain. Partly cloudy.13 mph100%29.62 "HgN/A
3:20 pm34 °FLight rain. Partly cloudy.14 mph100%29.65 "HgN/A
2:50 pm36 °FLight rain. Partly cloudy.12 mph93%29.65 "HgN/A
2:20 pm34 °FLight rain. Partly cloudy.13 mph100%29.68 "HgN/A
1:20 pm36 °FLight rain. Broken clouds.12 mph93%29.68 "HgN/A
12:50 pm36 °FLight rain. Partly sunny.12 mph93%29.71 "HgN/A
12:20 pm36 °FLight rain. Partly sunny.12 mph93%29.74 "HgN/A
11:20 am36 °FLight rain. Partly sunny.8 mph93%29.77 "HgN/A
10:50 am36 °FSprinkles. Partly sunny.5 mph93%29.77 "HgN/A
10:20 am37 °FSprinkles. Partly sunny.5 mph87%29.80 "HgN/A
9:50 am36 °FSprinkles. Passing clouds.6 mph93%29.80 "HgN/A
9:20 am36 °FPassing clouds.2 mph93%29.83 "HgN/A
8:50 am36 °FPassing clouds.3 mph93%29.83 "HgN/A
8:20 am37 °FPassing clouds.3 mph93%29.86 "HgN/A
Weather by CustomWeather, © 2016

See weather overviewHow to use our weather pages